Weather History for KOLE - April, 2013

Change the Weather History Date:

Wednesday, April 3, 2013

  Actual Average (KBFD) Record (KBFD)
Temperature  
Mean Temperature 24 °F 39 °F  
Max Temperature 28 °F 49 °F 80 °F (2010)
Min Temperature 21 °F 28 °F 12 °F (1965)
Degree Days  
Heating Degree Days 40 21  
Month to date heating degree days 64  
Since 1 July heating degree days 6671  
Cooling Degree Days 0 0  
Month to date cooling degree days 0  
Year to date cooling degree days 0  
Moisture  
Dew Point 14 °F    
Average Humidity 65    
Maximum Humidity 93    
Minimum Humidity 47    
Precipitation  
Precipitation 0.00 in 0.12 in 1.47 in (1988)
Month to date precipitation 0.37  
Year to date precipitation 9.38  
Sea Level Pressure  
Sea Level Pressure 30.16 in    
Wind  
Wind Speed 7 mph (WNW)    
Max Wind Speed 15 mph    
Max Gust Speed 26 mph    
Visibility 9 miles    
Events Snow    
T = Trace of Precipitation, MM = Missing Value Source: NWS Daily Summary

Daily Weather History Graph

Daily Weather History Graph

Search for Another Location

Airport or City:

Trip Planner

Search our weather history database for the weather conditions in past years. The results will help you decide how hot, cold, wet, or windy it might be!

Date:

Astronomy

Apr. 03, 2013 Rise Set
Actual Time 6:52 AM EDT 7:41 PM EDT
Civil Twilight 6:23 AM EDT 8:10 PM EDT
Nautical Twilight 5:50 AM EDT 8:44 PM EDT
Astronomical Twilight 5:15 AM EDT 9:19 PM EDT
Moon 2:38 AM EDT (4/3) 12:44 PM EDT (4/3)
Length of Visible Light 13h 46m
Length of Day
12h 49m
Last Quarter, 45% of the Moon is Illuminated
Apr 3
Last Quarter
Apr 10
New
Apr 18
First Quarter
Apr 25
Full
May 2
Last Quarter

Hourly Weather History & Observations

Time (EDT) Temp. Windchill Dew Point Humidity Pressure Visibility Wind Dir Wind Speed Gust Speed Precip Events Conditions
12:35 AM 23.0 °F - 19.4 °F 86% 30.04 in 5.0 mi Calm Calm - N/A Snow Light Snow
12:55 AM 23.0 °F 14.7 °F 21.2 °F 93% 30.04 in 5.0 mi WNW 6.9 mph - N/A Snow Light Snow
1:15 AM 23.0 °F 14.7 °F 21.2 °F 93% 30.04 in 7.0 mi WNW 6.9 mph - N/A   Overcast
1:35 AM 23.0 °F 17.0 °F 21.2 °F 93% 30.04 in 10.0 mi WNW 4.6 mph - N/A   Overcast
1:55 AM 23.0 °F 14.7 °F 19.4 °F 86% 30.04 in 10.0 mi WNW 6.9 mph - N/A   Overcast
2:15 AM 23.0 °F 13.9 °F 17.6 °F 80% 30.04 in 10.0 mi WNW 8.1 mph - N/A   Overcast
2:35 AM 23.0 °F 14.7 °F 15.8 °F 74% 30.04 in 10.0 mi WNW 6.9 mph - N/A   Mostly Cloudy
2:55 AM 23.0 °F 14.7 °F 15.8 °F 74% 30.04 in 10.0 mi WNW 6.9 mph - N/A   Mostly Cloudy
3:15 AM 23.0 °F 12.4 °F 14.0 °F 68% 30.03 in 10.0 mi WNW 10.4 mph 16.1 mph N/A   Overcast
3:35 AM 21.2 °F 11.7 °F 14.0 °F 74% 30.03 in 10.0 mi WNW 8.1 mph - N/A   Mostly Cloudy
3:55 AM 21.2 °F 11.7 °F 14.0 °F 74% 30.03 in 10.0 mi WNW 8.1 mph - N/A   Scattered Clouds
4:15 AM 23.0 °F 12.4 °F 14.0 °F 68% 30.04 in 10.0 mi WNW 10.4 mph 18.4 mph N/A Snow Light Snow
4:35 AM 23.0 °F 13.9 °F 14.0 °F 68% 30.04 in 10.0 mi WNW 8.1 mph 18.4 mph N/A Snow Light Snow
4:55 AM 21.2 °F 10.9 °F 15.8 °F 80% 30.04 in 10.0 mi WNW 9.2 mph 18.4 mph N/A   Overcast
5:15 AM 21.2 °F 10.9 °F 14.0 °F 74% 30.05 in 7.0 mi WNW 9.2 mph 18.4 mph N/A Snow Light Snow
5:35 AM 21.2 °F 13.6 °F 14.0 °F 74% 30.06 in 10.0 mi WNW 5.8 mph - N/A   Overcast
5:55 AM 21.2 °F 10.9 °F 12.2 °F 68% 30.07 in 10.0 mi WNW 9.2 mph 17.3 mph N/A   Overcast
6:15 AM 21.2 °F 11.7 °F 12.2 °F 68% 30.07 in 10.0 mi WNW 8.1 mph - N/A   Overcast
6:35 AM 21.2 °F 10.9 °F 10.4 °F 63% 30.08 in 10.0 mi WNW 9.2 mph 17.3 mph N/A   Overcast
6:55 AM 21.2 °F 11.7 °F 12.2 °F 68% 30.09 in 10.0 mi WNW 8.1 mph - N/A   Overcast
7:15 AM 21.2 °F 12.6 °F 10.4 °F 63% 30.10 in 10.0 mi WNW 6.9 mph 16.1 mph N/A   Overcast
7:35 AM 21.2 °F 10.1 °F 12.2 °F 68% 30.10 in 10.0 mi WNW 10.4 mph 17.3 mph N/A   Overcast
7:55 AM 21.2 °F 10.9 °F 12.2 °F 68% 30.11 in 10.0 mi WNW 9.2 mph - N/A   Overcast
8:15 AM 21.2 °F 12.6 °F 12.2 °F 68% 30.11 in 10.0 mi WNW 6.9 mph 17.3 mph N/A   Overcast
8:35 AM 21.2 °F 12.6 °F 12.2 °F 68% 30.11 in 10.0 mi WNW 6.9 mph - N/A   Overcast
8:55 AM 21.2 °F 10.9 °F 12.2 °F 68% 30.11 in 10.0 mi WNW 9.2 mph 16.1 mph N/A   Overcast
9:15 AM 23.0 °F 13.9 °F 14.0 °F 68% 30.11 in 7.0 mi WNW 8.1 mph 19.6 mph N/A Snow Light Snow
9:35 AM 23.0 °F 11.7 °F 14.0 °F 68% 30.12 in 7.0 mi WNW 11.5 mph 17.3 mph N/A Snow Light Snow
9:55 AM 23.0 °F 13.1 °F 12.2 °F 63% 30.12 in 10.0 mi WNW 9.2 mph 16.1 mph N/A   Overcast
10:15 AM 24.8 °F 14.0 °F 10.4 °F 54% 30.12 in 10.0 mi WNW 11.5 mph 21.9 mph N/A   Overcast
10:35 AM 26.6 °F 15.7 °F 10.4 °F 51% 30.12 in 10.0 mi WNW 12.7 mph 18.4 mph N/A   Overcast
10:55 AM 26.6 °F 16.8 °F 12.2 °F 55% 30.13 in 10.0 mi West 10.4 mph 17.3 mph N/A   Overcast
11:15 AM 26.6 °F 16.2 °F 12.2 °F 55% 30.15 in 10.0 mi WNW 11.5 mph 19.6 mph N/A Snow Light Snow
11:35 AM 26.6 °F 15.7 °F 10.4 °F 51% 30.15 in 10.0 mi WNW 12.7 mph 19.6 mph N/A   Overcast
11:55 AM 26.6 °F 17.5 °F 12.2 °F 55% 30.16 in 10.0 mi WNW 9.2 mph 18.4 mph N/A   Overcast
12:15 PM 28.4 °F 19.7 °F 12.2 °F 51% 30.16 in 10.0 mi WNW 9.2 mph - N/A   Overcast
12:35 PM 28.4 °F 17.0 °F 10.4 °F 47% 30.16 in 10.0 mi WNW 15.0 mph 26.5 mph N/A   Overcast
12:55 PM 26.6 °F 15.7 °F 10.4 °F 51% 30.17 in 10.0 mi WNW 12.7 mph 21.9 mph N/A   Overcast
1:15 PM 28.4 °F 19.7 °F 10.4 °F 47% 30.17 in 10.0 mi WNW 9.2 mph 25.3 mph N/A   Overcast
1:35 PM 28.4 °F 18.0 °F 14.0 °F 55% 30.18 in 10.0 mi WNW 12.7 mph 20.7 mph N/A   Overcast
1:55 PM 28.4 °F 20.4 °F 12.2 °F 51% 30.17 in 10.0 mi WNW 8.1 mph 17.3 mph N/A   Overcast
2:15 PM 26.6 °F 18.2 °F 14.0 °F 59% 30.19 in 10.0 mi WNW 8.1 mph 19.6 mph N/A   Overcast
2:35 PM 26.6 °F 15.7 °F 15.8 °F 64% 30.19 in 4.0 mi WNW 12.7 mph 23.0 mph N/A Snow Light Snow
2:55 PM 28.4 °F 20.4 °F 17.6 °F 64% 30.20 in 7.0 mi WNW 8.1 mph - N/A   Overcast
3:15 PM 28.4 °F 20.4 °F 15.8 °F 59% 30.20 in 7.0 mi WNW 8.1 mph 16.1 mph N/A Snow Light Snow
3:35 PM 28.4 °F 19.7 °F 15.8 °F 59% 30.20 in 7.0 mi WNW 9.2 mph 20.7 mph N/A Snow Light Snow
3:55 PM 28.4 °F 18.5 °F 14.0 °F 55% 30.20 in 10.0 mi WNW 11.5 mph 20.7 mph N/A   Overcast
4:15 PM 28.4 °F 19.7 °F 14.0 °F 55% 30.20 in 10.0 mi West 9.2 mph 20.7 mph N/A   Overcast
4:35 PM 28.4 °F 17.5 °F 14.0 °F 55% 30.21 in 7.0 mi WNW 13.8 mph 26.5 mph N/A   Overcast
4:55 PM 26.6 °F 16.8 °F 17.6 °F 69% 30.21 in 7.0 mi WNW 10.4 mph 18.4 mph N/A Snow Light Snow
5:15 PM 26.6 °F 15.7 °F 12.2 °F 55% 30.22 in 10.0 mi WNW 12.7 mph 23.0 mph N/A   Overcast
5:35 PM 28.4 °F 18.5 °F 12.2 °F 51% 30.23 in 10.0 mi West 11.5 mph 18.4 mph N/A   Overcast
5:55 PM 28.4 °F 19.1 °F 12.2 °F 51% 30.23 in 10.0 mi WNW 10.4 mph 17.3 mph N/A   Overcast
6:15 PM 26.6 °F 17.5 °F 15.8 °F 64% 30.24 in 7.0 mi WNW 9.2 mph 20.7 mph N/A Snow Light Snow
6:35 PM 26.6 °F 18.2 °F 15.8 °F 64% 30.25 in 10.0 mi West 8.1 mph 16.1 mph N/A Snow Light Snow
6:55 PM 26.6 °F 16.8 °F 14.0 °F 59% 30.25 in 10.0 mi WNW 10.4 mph 19.6 mph N/A   Mostly Cloudy
7:15 PM 26.6 °F 20.0 °F 14.0 °F 59% 30.27 in 10.0 mi West 5.8 mph - N/A   Overcast
7:35 PM 26.6 °F 21.2 °F 12.2 °F 55% 30.27 in 10.0 mi West 4.6 mph - N/A   Overcast
7:55 PM 24.8 °F 19.1 °F 12.2 °F 59% 30.28 in 10.0 mi West 4.6 mph - N/A   Overcast
8:15 PM 24.8 °F 19.1 °F 12.2 °F 59% 30.29 in 10.0 mi West 4.6 mph - N/A   Scattered Clouds
8:35 PM 23.0 °F 14.7 °F 12.2 °F 63% 30.30 in 10.0 mi West 6.9 mph - N/A   Scattered Clouds
8:55 PM 23.0 °F 15.8 °F 12.2 °F 63% 30.30 in 10.0 mi West 5.8 mph - N/A   Scattered Clouds
9:15 PM 23.0 °F 17.0 °F 12.2 °F 63% 30.30 in 10.0 mi West 4.6 mph - N/A   Clear
9:35 PM 23.0 °F 17.0 °F 12.2 °F 63% 30.30 in 10.0 mi West 4.6 mph - N/A   Clear
9:55 PM 23.0 °F 14.7 °F 12.2 °F 63% 30.31 in 10.0 mi West 6.9 mph - N/A   Clear
10:15 PM 23.0 °F 15.8 °F 12.2 °F 63% 30.31 in 10.0 mi West 5.8 mph - N/A   Clear
10:35 PM 23.0 °F 15.8 °F 14.0 °F 68% 30.30 in 10.0 mi West 5.8 mph - N/A   Clear
10:55 PM 21.2 °F 13.6 °F 14.0 °F 74% 30.30 in 10.0 mi West 5.8 mph - N/A   Clear
11:15 PM 21.2 °F 16.4 °F 14.0 °F 74% 30.29 in 10.0 mi West 3.5 mph - N/A   Clear
11:35 PM 21.2 °F 16.4 °F 14.0 °F 74% 30.28 in 10.0 mi West 3.5 mph - N/A   Clear
11:55 PM 21.2 °F - 14.0 °F 74% 30.27 in 10.0 mi Calm Calm - N/A   Clear